Satellite-Ground Cal/Val Region Overpasses Predictions

Prediction of Satellite NPP Overpassing Cal/Val Region: PacNW

Region Location: (Latitude: 10.00, Longitude: 139.50) to (Latitude: 22.70, Longitude: 165.60).

Table of predicted overpasses for the next 14.0 days since TLE Epoch: 7/2/2023
Interval Starting Time Starting Location Ending Time Ending Location
1 07/02/2023 02:28:16 ( 10.88, 162.94) 07/02/2023 02:31:37 ( 22.68, 160.13)
2 07/02/2023 14:59:55 ( 22.68, 160.36) 07/02/2023 15:03:31 ( 10.00, 157.34)
3 07/03/2023 02:11:46 ( 19.80, 165.59) 07/03/2023 02:12:35 ( 22.68, 164.89)
4 07/03/2023 03:50:29 ( 10.00, 142.52) 07/03/2023 03:54:05 ( 22.68, 139.51)
5 07/03/2023 14:40:53 ( 22.68, 165.11) 07/03/2023 14:44:29 ( 10.00, 162.10)
6 07/03/2023 16:22:23 ( 22.68, 139.73) 07/03/2023 16:22:38 ( 21.80, 139.51)
7 07/04/2023 03:31:28 ( 10.00, 147.27) 07/04/2023 03:35:04 ( 22.68, 144.26)
8 07/04/2023 16:03:22 ( 22.68, 144.49) 07/04/2023 16:06:57 ( 10.06, 141.49)
9 07/05/2023 03:12:26 ( 10.00, 152.03) 07/05/2023 03:16:02 ( 22.68, 149.02)
10 07/05/2023 15:44:20 ( 22.68, 149.24) 07/05/2023 15:47:55 ( 10.05, 146.24)
11 07/06/2023 02:53:25 ( 10.00, 156.78) 07/06/2023 02:57:01 ( 22.68, 153.77)
12 07/06/2023 15:25:19 ( 22.68, 153.99) 07/06/2023 15:28:54 ( 10.05, 151.00)
13 07/07/2023 02:34:23 ( 10.00, 161.53) 07/07/2023 02:37:59 ( 22.68, 158.52)
14 07/07/2023 15:06:17 ( 22.67, 158.74) 07/07/2023 15:09:52 ( 10.05, 155.75)
15 07/08/2023 02:16:13 ( 13.00, 165.60) 07/08/2023 02:18:58 ( 22.69, 163.28)
16 07/08/2023 03:56:52 ( 10.01, 140.91) 07/08/2023 03:58:35 ( 16.06, 139.51)
17 07/08/2023 14:47:16 ( 22.67, 163.50) 07/08/2023 14:50:51 ( 10.05, 160.50)
18 07/09/2023 03:37:51 ( 10.01, 145.66) 07/09/2023 03:41:27 ( 22.70, 142.65)
19 07/09/2023 14:31:24 ( 11.51, 165.59) 07/09/2023 14:31:49 ( 10.04, 165.25)
20 07/09/2023 16:09:44 ( 22.66, 142.87) 07/09/2023 16:13:19 ( 10.04, 139.88)
21 07/10/2023 03:18:49 ( 10.02, 150.42) 07/10/2023 03:22:24 ( 22.64, 147.42)
22 07/10/2023 15:50:43 ( 22.66, 147.63) 07/10/2023 15:54:18 ( 10.03, 144.63)
23 07/11/2023 02:59:48 ( 10.02, 155.17) 07/11/2023 03:03:23 ( 22.65, 152.17)
24 07/11/2023 15:31:41 ( 22.65, 152.38) 07/11/2023 15:35:16 ( 10.03, 149.38)
25 07/12/2023 02:40:46 ( 10.03, 159.92) 07/12/2023 02:44:21 ( 22.65, 156.92)
26 07/12/2023 15:12:40 ( 22.64, 157.13) 07/12/2023 15:16:15 ( 10.02, 154.14)
27 07/13/2023 02:21:45 ( 10.04, 164.67) 07/13/2023 02:25:20 ( 22.66, 161.68)
28 07/13/2023 14:53:37 ( 22.70, 161.90) 07/13/2023 14:57:13 ( 10.02, 158.89)
29 07/14/2023 03:44:13 ( 10.05, 144.05) 07/14/2023 03:47:48 ( 22.67, 141.05)
30 07/14/2023 14:35:50 ( 18.35, 165.59) 07/14/2023 14:38:12 ( 10.01, 163.64)
31 07/14/2023 16:16:06 ( 22.68, 141.27) 07/14/2023 16:18:10 ( 15.41, 139.51)
32 07/15/2023 03:25:12 ( 10.06, 148.80) 07/15/2023 03:28:47 ( 22.68, 145.80)
